Time,TemperatureF,DewpointF,PressureIn,WindDirection,WindDirectionDegrees,WindSpeedMPH,WindSpeedGustMPH,Humidity,HourlyPrecipIn,Conditions,Clouds,dailyrainin,SoftwareType,DateUTC
2013-01-12 00:02:00,39.0,39.0,29.37,WNW,285,6.0,12.0,99,0.00,,,0.02,,2013-01-12 06:02:00,
2013-01-12 00:12:00,39.0,39.0,29.37,WNW,285,6.0,12.0,99,0.00,,,0.02,,2013-01-12 06:12:00,
2013-01-12 00:22:00,39.0,39.0,29.37,WNW,298,3.0,10.0,99,0.00,,,0.02,,2013-01-12 06:22:00,
2013-01-12 00:32:00,38.0,38.0,29.37,NNW,338,7.0,11.0,99,0.00,,,0.02,,2013-01-12 06:32:00,
2013-01-12 00:42:00,38.0,38.0,29.37,NNW,338,7.0,11.0,99,0.00,,,0.02,,2013-01-12 06:42:00,
2013-01-12 00:52:00,37.0,37.0,29.37,West,279,4.0,11.0,99,0.00,,,0.02,,2013-01-12 06:52:00,
2013-01-12 01:02:00,37.0,37.0,29.39,WNW,303,5.0,11.0,99,0.00,,,0.02,,2013-01-12 07:02:00,
2013-01-12 01:12:00,35.0,35.0,29.41,NW,315,17.0,18.0,99,0.00,,,0.02,,2013-01-12 07:12:00,
2013-01-12 01:22:00,35.0,35.0,29.41,NW,315,17.0,18.0,99,0.00,,,0.02,,2013-01-12 07:22:00,
2013-01-12 01:32:00,35.0,35.0,29.43,NW,315,9.0,19.0,99,0.00,,,0.02,,2013-01-12 07:32:00,
2013-01-12 01:42:00,35.0,35.0,29.43,NW,315,9.0,19.0,99,0.00,,,0.02,,2013-01-12 07:42:00,
2013-01-12 01:52:00,33.0,33.0,29.43,WNW,296,8.0,18.0,99,0.00,,,0.02,,2013-01-12 07:52:00,
2013-01-12 02:02:00,31.0,31.0,29.45,WNW,295,6.0,25.0,99,0.00,,,0.02,,2013-01-12 08:02:00,
2013-01-12 02:11:00,31.0,31.0,29.45,WNW,295,6.0,25.0,99,0.00,,,0.02,,2013-01-12 08:11:00,
2013-01-12 02:22:00,29.0,29.0,29.47,NW,312,21.0,26.0,99,0.00,,,0.02,,2013-01-12 08:22:00,
2013-01-12 02:32:00,27.0,27.0,29.48,WNW,291,11.0,24.0,98,0.00,,,0.02,,2013-01-12 08:32:00,
2013-01-12 02:42:00,27.0,27.0,29.48,WNW,291,11.0,24.0,98,0.00,,,0.02,,2013-01-12 08:42:00,
2013-01-12 02:52:00,26.0,25.0,29.51,NW,315,20.0,23.0,97,0.00,,,0.02,,2013-01-12 08:52:00,
2013-01-12 03:02:00,25.0,25.0,29.51,WNW,299,12.0,21.0,99,0.00,,,0.02,,2013-01-12 09:02:00,
2013-01-12 03:12:00,25.0,25.0,29.51,WNW,299,12.0,21.0,99,0.00,,,0.02,,2013-01-12 09:12:00,
2013-01-12 03:22:00,25.0,24.0,29.52,NW,309,11.0,20.0,97,0.00,,,0.02,,2013-01-12 09:22:00,
2013-01-12 03:32:00,24.0,23.0,29.54,WNW,300,13.0,26.0,94,0.00,,,0.02,,2013-01-12 09:32:00,
2013-01-12 03:42:00,24.0,23.0,29.54,WNW,300,13.0,26.0,94,0.00,,,0.02,,2013-01-12 09:42:00,
2013-01-12 03:52:00,24.0,23.0,29.55,NW,324,13.0,17.0,95,0.00,,,0.02,,2013-01-12 09:52:00,
2013-01-12 04:02:00,23.0,21.0,29.57,NNW,338,9.0,15.0,93,0.00,,,0.02,,2013-01-12 10:02:00,
2013-01-12 04:12:00,23.0,21.0,29.57,NNW,338,9.0,15.0,93,0.00,,,0.02,,2013-01-12 10:12:00,
2013-01-12 04:22:00,22.0,19.0,29.58,NNW,348,15.0,29.0,88,0.00,,,0.02,,2013-01-12 10:22:00,
2013-01-12 04:32:00,21.0,17.0,29.59,West,279,8.0,33.0,85,0.00,,,0.02,,2013-01-12 10:32:00,
2013-01-12 04:42:00,21.0,17.0,29.59,West,279,8.0,33.0,85,0.00,,,0.02,,2013-01-12 10:42:00,
2013-01-12 04:52:00,20.0,17.0,29.61,NW,324,16.0,30.0,87,0.00,,,0.02,,2013-01-12 10:52:00,
2013-01-12 05:02:00,20.0,17.0,29.62,NNW,347,6.0,27.0,87,0.00,,,0.02,,2013-01-12 11:02:00,
2013-01-12 05:12:00,19.0,16.0,29.64,NNW,343,7.0,27.0,86,0.00,,,0.02,,2013-01-12 11:12:00,
2013-01-12 05:22:00,19.0,16.0,29.64,NNW,343,7.0,27.0,86,0.00,,,0.02,,2013-01-12 11:22:00,
2013-01-12 05:32:00,19.0,16.0,29.64,NNW,327,11.0,27.0,86,0.00,,,0.02,,2013-01-12 11:32:00,
2013-01-12 05:42:00,19.0,16.0,29.64,NNW,327,11.0,27.0,86,0.00,,,0.02,,2013-01-12 11:42:00,
2013-01-12 05:53:00,19.0,16.0,29.66,North,358,10.0,32.0,88,0.00,,,0.02,,2013-01-12 11:53:00,
2013-01-12 06:02:00,18.0,15.0,29.68,NNW,343,9.0,21.0,89,0.00,,,0.02,,2013-01-12 12:02:00,
2013-01-12 06:12:00,18.0,15.0,29.68,NNW,343,9.0,21.0,89,0.00,,,0.02,,2013-01-12 12:12:00,
2013-01-12 06:22:00,18.0,15.0,29.70,NW,320,13.0,30.0,87,0.00,,,0.02,,2013-01-12 12:22:00,
2013-01-12 06:32:00,17.0,14.0,29.71,NW,307,8.0,27.0,86,0.00,,,0.02,,2013-01-12 12:32:00,
2013-01-12 06:42:00,17.0,14.0,29.71,NW,307,8.0,27.0,86,0.00,,,0.02,,2013-01-12 12:42:00,
2013-01-12 06:53:00,17.0,14.0,29.73,NW,322,6.0,16.0,88,0.00,,,0.02,,2013-01-12 12:53:00,
2013-01-12 07:02:00,17.0,14.0,29.74,NW,320,15.0,23.0,86,0.00,,,0.02,,2013-01-12 13:02:00,
2013-01-12 07:12:00,17.0,14.0,29.74,NW,320,15.0,23.0,86,0.00,,,0.02,,2013-01-12 13:12:00,
2013-01-12 07:22:00,17.0,14.0,29.76,NW,305,3.0,21.0,86,0.00,,,0.02,,2013-01-12 13:22:00,
2013-01-12 07:33:00,16.0,12.0,29.77,NNW,340,3.0,25.0,85,0.00,,,0.02,,2013-01-12 13:33:00,
2013-01-12 07:42:00,16.0,12.0,29.77,NNW,340,3.0,25.0,85,0.00,,,0.02,,2013-01-12 13:42:00,
2013-01-12 07:53:00,16.0,13.0,29.78,NNE,26,7.0,23.0,86,0.00,,,0.02,,2013-01-12 13:53:00,
2013-01-12 08:02:00,16.0,13.0,29.79,NW,310,21.0,23.0,86,0.00,,,0.02,,2013-01-12 14:02:00,
2013-01-12 08:12:00,16.0,13.0,29.79,NW,310,21.0,23.0,86,0.00,,,0.02,,2013-01-12 14:12:00,
2013-01-12 08:22:00,15.0,13.0,29.80,NNW,333,3.0,23.0,92,0.00,,,0.02,,2013-01-12 14:22:00,
2013-01-12 08:32:00,15.0,13.0,29.81,NW,323,9.0,21.0,91,0.00,,,0.02,,2013-01-12 14:32:00,
2013-01-12 08:43:00,15.0,13.0,29.81,NW,323,9.0,21.0,91,0.00,,,0.02,,2013-01-12 14:43:00,
2013-01-12 08:53:00,14.0,11.0,29.83,NNW,331,14.0,21.0,89,0.00,,,0.02,,2013-01-12 14:53:00,
2013-01-12 09:03:00,14.0,11.0,29.83,NNW,330,24.0,24.0,89,0.00,,,0.02,,2013-01-12 15:03:00,
2013-01-12 09:12:00,14.0,11.0,29.85,NNW,347,4.0,16.0,89,0.00,,,0.02,,2013-01-12 15:12:00,
2013-01-12 09:22:00,14.0,11.0,29.85,NNW,347,4.0,16.0,89,0.00,,,0.02,,2013-01-12 15:22:00,
2013-01-12 09:33:00,14.0,12.0,29.85,NW,315,6.0,20.0,92,0.00,,,0.02,,2013-01-12 15:33:00,
2013-01-12 09:42:00,14.0,12.0,29.85,NW,315,6.0,20.0,92,0.00,,,0.02,,2013-01-12 15:42:00,
2013-01-12 09:53:00,14.0,11.0,29.87,WNW,303,9.0,21.0,86,0.00,,,0.02,,2013-01-12 15:53:00,
2013-01-12 10:03:00,13.0,10.0,29.88,NNW,336,14.0,22.0,86,0.00,,,0.02,,2013-01-12 16:03:00,
2013-01-12 10:12:00,13.0,10.0,29.88,NNW,336,14.0,22.0,86,0.00,,,0.02,,2013-01-12 16:12:00,
2013-01-12 10:23:00,13.0,10.0,29.89,West,278,9.0,13.0,88,0.00,,,0.02,,2013-01-12 16:23:00,
2013-01-12 10:33:00,14.0,11.0,29.90,NW,309,9.0,24.0,86,0.00,,,0.02,,2013-01-12 16:33:00,
2013-01-12 10:42:00,13.0,10.0,29.90,NNW,330,5.0,16.0,87,0.00,,,0.02,,2013-01-12 16:42:00,
2013-01-12 10:53:00,13.0,10.0,29.90,NNW,330,5.0,16.0,87,0.00,,,0.02,,2013-01-12 16:53:00,
2013-01-12 11:02:00,14.0,10.0,29.91,NNW,337,5.0,24.0,83,0.00,,,0.02,,2013-01-12 17:02:00,
2013-01-12 11:12:00,12.0,8.0,29.92,NW,306,6.0,17.0,83,0.00,,,0.02,,2013-01-12 17:12:00,
2013-01-12 11:22:00,12.0,8.0,29.92,NW,306,6.0,17.0,83,0.00,,,0.02,,2013-01-12 17:22:00,
2013-01-12 11:33:00,13.0,10.0,29.93,North,358,3.0,16.0,86,0.00,,,0.02,,2013-01-12 17:33:00,
2013-01-12 11:42:00,13.0,10.0,29.93,North,358,3.0,16.0,86,0.00,,,0.02,,2013-01-12 17:42:00,
2013-01-12 11:53:00,13.0,9.0,29.91,NW,306,10.0,25.0,82,0.00,,,0.02,,2013-01-12 17:53:00,
2013-01-12 12:03:00,13.0,8.0,29.92,WNW,295,8.0,30.0,81,0.00,,,0.02,,2013-01-12 18:03:00,
2013-01-12 12:12:00,13.0,8.0,29.92,WNW,295,8.0,30.0,81,0.00,,,0.02,,2013-01-12 18:12:00,
2013-01-12 12:22:00,12.0,8.0,29.92,NW,320,8.0,22.0,82,0.00,,,0.02,,2013-01-12 18:22:00,
2013-01-12 12:33:00,12.0,8.0,29.93,NW,310,16.0,26.0,83,0.00,,,0.02,,2013-01-12 18:33:00,
2013-01-12 12:42:00,12.0,8.0,29.93,NW,310,16.0,26.0,83,0.00,,,0.02,,2013-01-12 18:42:00,
2013-01-12 12:53:00,12.0,8.0,29.93,NNW,344,8.0,21.0,84,0.00,,,0.02,,2013-01-12 18:53:00,
2013-01-12 13:03:00,12.0,8.0,29.93,NW,319,13.0,17.0,83,0.00,,,0.02,,2013-01-12 19:03:00,
2013-01-12 13:12:00,12.0,8.0,29.93,NW,319,13.0,17.0,83,0.00,,,0.02,,2013-01-12 19:12:00,
2013-01-12 13:23:00,12.0,8.0,29.94,North,355,6.0,21.0,83,0.00,,,0.02,,2013-01-12 19:23:00,
2013-01-12 13:33:00,13.0,9.0,29.95,NW,313,16.0,21.0,83,0.00,,,0.02,,2013-01-12 19:33:00,
2013-01-12 13:42:00,13.0,9.0,29.95,NW,313,16.0,21.0,83,0.00,,,0.02,,2013-01-12 19:42:00,
2013-01-12 13:53:00,13.0,9.0,29.96,NW,322,10.0,22.0,82,0.00,,,0.02,,2013-01-12 19:53:00,
2013-01-12 14:02:00,12.0,8.0,29.97,North,1,4.0,14.0,83,0.00,,,0.02,,2013-01-12 20:02:00,
2013-01-12 14:12:00,12.0,7.0,29.98,NW,323,8.0,20.0,81,0.00,,,0.00,,2013-01-12 20:12:00,
2013-01-12 14:22:00,12.0,7.0,29.98,NW,323,8.0,20.0,81,0.00,,,0.00,,2013-01-12 20:22:00,
2013-01-12 14:32:00,13.0,8.0,29.97,NW,306,7.0,21.0,80,0.00,,,0.00,,2013-01-12 20:32:00,
2013-01-12 14:42:00,13.0,8.0,29.97,NW,306,7.0,21.0,80,0.00,,,0.00,,2013-01-12 20:42:00,
2013-01-12 14:53:00,12.0,8.0,29.98,NW,305,4.0,17.0,84,0.00,,,0.00,,2013-01-12 20:53:00,
2013-01-12 15:02:00,12.0,8.0,29.99,NNW,344,6.0,13.0,83,0.00,,,0.00,,2013-01-12 21:02:00,
2013-01-12 15:12:00,10.0,5.0,29.98,NNW,343,8.0,16.0,81,0.00,,,0.00,,2013-01-12 21:12:00,
2013-01-12 15:22:00,10.0,5.0,29.98,NNW,343,8.0,16.0,81,0.00,,,0.00,,2013-01-12 21:22:00,
2013-01-12 15:33:00,9.0,5.0,29.99,North,4,6.0,14.0,84,0.00,,,0.00,,2013-01-12 21:33:00,
2013-01-12 15:42:00,9.0,5.0,29.99,North,4,6.0,14.0,84,0.00,,,0.00,,2013-01-12 21:42:00,
2013-01-12 15:53:00,9.0,5.0,29.99,North,1,4.0,19.0,82,0.00,,,0.00,,2013-01-12 21:53:00,
2013-01-12 16:02:00,9.0,4.0,29.99,NNW,337,11.0,15.0,80,0.00,,,0.00,,2013-01-12 22:02:00,
2013-01-12 16:12:00,9.0,4.0,29.99,NNW,337,11.0,15.0,80,0.00,,,0.00,,2013-01-12 22:12:00,
2013-01-12 16:22:00,9.0,5.0,29.99,North,2,4.0,14.0,83,0.00,,,0.00,,2013-01-12 22:22:00,
2013-01-12 16:32:00,9.0,5.0,30.00,North,358,7.0,20.0,83,0.00,,,0.00,,2013-01-12 22:32:00,
2013-01-12 16:43:00,9.0,5.0,30.01,NNW,327,5.0,11.0,82,0.00,,,0.00,,2013-01-12 22:43:00,
2013-01-12 16:52:00,9.0,5.0,30.01,NNW,327,5.0,11.0,82,0.00,,,0.00,,2013-01-12 22:52:00,
2013-01-12 17:03:00,9.0,5.0,30.02,NW,313,6.0,12.0,84,0.00,,,0.00,,2013-01-12 23:03:00,
2013-01-12 17:12:00,8.0,4.0,30.04,NW,323,9.0,18.0,82,0.00,,,0.00,,2013-01-12 23:12:00,
2013-01-12 17:22:00,8.0,4.0,30.04,NW,323,9.0,18.0,82,0.00,,,0.00,,2013-01-12 23:22:00,
2013-01-12 17:33:00,8.0,4.0,30.06,NW,320,0.0,11.0,85,0.00,,,0.00,,2013-01-12 23:33:00,
2013-01-12 17:42:00,7.0,3.0,30.05,NNW,334,4.0,9.0,83,0.00,,,0.00,,2013-01-12 23:42:00,
2013-01-12 17:53:00,7.0,3.0,30.05,NNW,334,4.0,9.0,83,0.00,,,0.00,,2013-01-12 23:53:00,
2013-01-12 18:03:00,8.0,4.0,30.04,North,354,0.0,9.0,84,0.00,,,0.00,,2013-01-13 00:03:00,
2013-01-12 18:12:00,8.0,4.0,30.04,North,354,0.0,9.0,84,0.00,,,0.00,,2013-01-13 00:12:00,
2013-01-12 18:22:00,7.0,3.0,30.04,North,358,3.0,9.0,85,0.00,,,0.00,,2013-01-13 00:22:00,
2013-01-12 18:32:00,7.0,4.0,30.03,NW,320,6.0,14.0,86,0.00,,,0.00,,2013-01-13 00:32:00,
2013-01-12 18:42:00,7.0,4.0,30.03,NW,320,6.0,14.0,86,0.00,,,0.00,,2013-01-13 00:42:00,
2013-01-12 18:53:00,7.0,3.0,30.03,North,2,0.0,10.0,85,0.00,,,0.00,,2013-01-13 00:53:00,
2013-01-12 19:02:00,7.0,3.0,30.04,WNW,303,5.0,15.0,85,0.00,,,0.00,,2013-01-13 01:02:00,
2013-01-12 19:12:00,7.0,3.0,30.04,WNW,303,5.0,15.0,85,0.00,,,0.00,,2013-01-13 01:12:00,
2013-01-12 19:22:00,6.0,3.0,30.05,NNW,330,10.0,13.0,86,0.00,,,0.00,,2013-01-13 01:22:00,
2013-01-12 19:32:00,6.0,3.0,30.05,North,2,0.0,11.0,86,0.00,,,0.00,,2013-01-13 01:32:00,
2013-01-12 19:42:00,6.0,3.0,30.05,North,2,0.0,11.0,86,0.00,,,0.00,,2013-01-13 01:42:00,
2013-01-12 19:53:00,6.0,3.0,30.04,NE,35,6.0,11.0,86,0.00,,,0.00,,2013-01-13 01:53:00,
2013-01-12 20:02:00,6.0,2.0,30.06,NNW,348,13.0,13.0,85,0.00,,,0.00,,2013-01-13 02:02:00,
2013-01-12 20:12:00,6.0,2.0,30.06,NNW,348,13.0,13.0,85,0.00,,,0.00,,2013-01-13 02:12:00,
2013-01-12 20:22:00,6.0,3.0,30.06,NNW,345,5.0,9.0,86,0.00,,,0.00,,2013-01-13 02:22:00,
2013-01-12 20:32:00,6.0,3.0,30.07,NNW,336,5.0,13.0,86,0.00,,,0.00,,2013-01-13 02:32:00,
2013-01-12 20:42:00,6.0,3.0,30.07,NNW,336,5.0,13.0,86,0.00,,,0.00,,2013-01-13 02:42:00,
2013-01-12 20:53:00,6.0,3.0,30.07,NNE,18,3.0,11.0,86,0.00,,,0.00,,2013-01-13 02:53:00,
2013-01-12 21:02:00,6.0,3.0,30.09,SW,222,3.0,7.0,87,0.00,,,0.00,,2013-01-13 03:02:00,
2013-01-12 21:12:00,6.0,3.0,30.09,SW,222,3.0,7.0,87,0.00,,,0.00,,2013-01-13 03:12:00,
2013-01-12 21:22:00,5.0,2.0,30.11,NNE,18,3.0,7.0,86,0.00,,,0.00,,2013-01-13 03:22:00,
2013-01-12 21:32:00,5.0,2.0,30.09,NNE,22,0.0,7.0,87,0.00,,,0.00,,2013-01-13 03:32:00,
2013-01-12 21:42:00,5.0,2.0,30.09,NNE,22,0.0,7.0,87,0.00,,,0.00,,2013-01-13 03:42:00,
2013-01-12 21:53:00,6.0,3.0,30.09,NNW,333,0.0,10.0,86,0.00,,,0.00,,2013-01-13 03:53:00,
2013-01-12 22:02:00,5.0,2.0,30.09,NNE,28,5.0,9.0,86,0.00,,,0.00,,2013-01-13 04:02:00,
2013-01-12 22:12:00,5.0,2.0,30.09,NNE,28,5.0,9.0,86,0.00,,,0.00,,2013-01-13 04:12:00,
2013-01-12 22:22:00,5.0,2.0,30.09,NNE,16,5.0,7.0,87,0.00,,,0.00,,2013-01-13 04:22:00,
2013-01-12 22:33:00,5.0,2.0,30.09,North,358,0.0,4.0,88,0.00,,,0.00,,2013-01-13 04:33:00,
2013-01-12 22:42:00,5.0,2.0,30.09,North,358,0.0,4.0,88,0.00,,,0.00,,2013-01-13 04:42:00,
2013-01-12 22:52:00,4.0,1.0,30.10,North,0,6.0,9.0,87,0.00,,,0.00,,2013-01-13 04:52:00,
2013-01-12 23:03:00,4.0,1.0,30.09,NNE,30,2.0,8.0,87,0.00,,,0.00,,2013-01-13 05:03:00,
2013-01-12 23:12:00,4.0,1.0,30.09,NNE,30,2.0,8.0,87,0.00,,,0.00,,2013-01-13 05:12:00,
2013-01-12 23:22:00,3.0,0.0,30.09,NNW,329,3.0,8.0,87,0.00,,,0.00,,2013-01-13 05:22:00,
2013-01-12 23:32:00,3.0,0.0,30.09,North,0,3.0,6.0,88,0.00,,,0.00,,2013-01-13 05:32:00,
2013-01-12 23:42:00,3.0,0.0,30.09,North,0,3.0,6.0,88,0.00,,,0.00,,2013-01-13 05:42:00,
2013-01-12 23:52:00,3.0,0.0,30.09,North,357,0.0,6.0,88,0.00,,,0.00,,2013-01-13 05:52:00,